Temp
-1 -1 -1 -1 -1 -1 -1 -1 -1 -0 -0 -1 -1 -1 -1 -2 -2 -2 -2 -2 -1 -1 -1 -1 -1 -1 -0 -0 -0 -0 0 0 1 1 1 2 2 2 2 2 1 1 -1 -2 -2 -2 -3 -2 -2 -3 -4 -4 -4 -4 -4 -5 -5 -5 -5 -5 -5 -4 -4
-1 -1 -1 -1 -1 -1 -1 -1 -1 -1 -0 -1 -1 -1 -1 -2 -2 -2 -2 -1 -1 -1 -1 -1 -1 -1 -1 -0 -1 -0 -0 -0 -0 0 0 1 1 1 1 1 1 1 -2 -3 -3 -3 -3 -3 -3 -4 -4 -4 -4 -4 -5 -5 -5 -5 -5 -5 -5 -5 -4
-1 -1 -2 -1 -1 -1 -1 -1 -1 -1 -1 -1 -1 -1 -1 -1 -2 -2 -2 -2 -1 -1 -1 -1 -1 -1 -1 -1 -1 -1 -1 -1 -1 -1 -1 -0 -0 -0 0 0 1 0 -2 -3 -4 -4 -4 -4 -4 -4 -4 -4 -4 -5 -5 -5 -5 -6 -6 -6 -6 -5 -5
-1 -1 -1 -1 -1 -1 -1 -1 -1 -1 -1 -1 -1 -1 -1 -1 -1 -2 -2 -2 -1 -1 -1 -1 -1 -1 -1 -1 -1 -1 -1 -1 -1 -1 -1 -1 -1 -1 -1 -1 0 0 -1 -3 -4 -5 -5 -5 -5 -5 -5 -5 -5 -5 -5 -5 -6 -6 -6 -6 -6 -6 -6
-1 -1 -1 -1 -1 -1 -1 -1 -1 -1 -1 -1 -1 -1 -1 -1 -1 -1 -2 -2 -2 -2 -1 -1 -1 -1 -1 -1 -1 -1 -1 -2 -2 -2 -2 -2 -2 -2 -1 -1 -1 -0 -1 -3 -4 -5 -5 -5 -5 -5 -5 -5 -5 -6 -6 -6 -6 -6 -6 -6 -6 -6 -6
-1 -1 -1 -1 -1 -1 -1 -1 -1 -1 -1 -1 -1 -1 -1 -1 -1 -1 -1 -2 -2 -2 -2 -2 -1 -1 -1 -1 -1 -1 -2 -2 -2 -2 -2 -2 -2 -2 -2 -2 -2 -1 -1 -2 -4 -5 -5 -6 -6 -6 -6 -6 -6 -6 -6 -6 -6 -6 -6 -6 -6 -6 -6
-2 -2 -1 -1 -1 -1 -1 -1 -1 -1 -1 -1 -1 -2 -2 -1 -1 -1 -1 -1 -2 -2 -2 -2 -2 -2 -2 -2 -2 -2 -2 -2 -3 -3 -3 -3 -3 -3 -3 -3 -3 -2 -2 -2 -3 -4 -5 -6 -6 -6 -6 -6 -6 -6 -6 -7 -7 -7 -7 -7 -7 -7 -6
-3 -2 -2 -1 -1 -1 -1 -1 -1 -2 -2 -2 -2 -2 -2 -2 -2 -2 -2 -2 -2 -2 -2 -2 -2 -2 -2 -2 -2 -2 -2 -3 -3 -3 -4 -4 -4 -4 -4 -4 -4 -3 -3 -3 -3 -4 -5 -6 -6 -6 -6 -6 -7 -7 -7 -7 -7 -7 -7 -7 -7 -6 -6
-4 -3 -2 -2 -2 -2 -1 -1 -2 -2 -2 -2 -2 -2 -2 -2 -2 -2 -2 -2 -2 -2 -2 -2 -3 -3 -3 -2 -2 -2 -3 -3 -3 -4 -4 -4 -4 -4 -5 -5 -5 -5 -4 -4 -4 -4 -5 -6 -6 -6 -7 -7 -7 -7 -7 -7 -7 -7 -6 -6 -6 -6 -6
-4 -3 -2 -2 -2 -2 -2 -2 -2 -2 -2 -2 -2 -2 -2 -2 -2 -2 -2 -2 -2 -2 -2 -3 -3 -3 -3 -3 -3 -3 -3 -3 -3 -4 -4 -4 -4 -5 -5 -5 -5 -5 -5 -5 -5 -5 -5 -5 -6 -6 -7 -7 -7 -7 -7 -7 -7 -7 -6 -6 -6 -6 -6
-5 -4 -3 -3 -3 -2 -2 -2 -2 -2 -2 -2 -2 -2 -2 -2 -2 -2 -2 -2 -2 -2 -3 -3 -3 -3 -3 -3 -3 -3 -3 -3 -4 -4 -4 -4 -4 -5 -5 -5 -6 -6 -6 -5 -5 -5 -5 -5 -6 -6 -6 -7 -7 -7 -7 -7 -7 -7 -6 -6 -7 -7 -7
-5 -4 -3 -3 -3 -2 -2 -2 -2 -2 -2 -2 -2 -2 -2 -2 -2 -2 -2 -2 -2 -2 -2 -3 -3 -3 -3 -3 -3 -3 -4 -4 -4 -4 -4 -5 -5 -5 -5 -5 -5 -6 -6 -6 -6 -6 -5 -5 -6 -6 -6 -6 -6 -6 -7 -6 -6 -6 -6 -6 -7 -8 -8
-5 -4 -3 -3 -3 -2 -2 -2 -2 -2 -2 -2 -2 -2 -2 -2 -2 -2 -2 -2 -3 -3 -3 -3 -3 -3 -3 -3 -3 -3 -4 -4 -4 -4 -5 -5 -5 -5 -5 -5 -5 -5 -6 -6 -6 -6 -6 -6 -6 -6 -6 -6 -6 -6 -6 -6 -6 -6 -6 -7 -7 -8 -8
-5 -4 -3 -3 -3 -3 -2 -2 -2 -2 -2 -2 -2 -2 -2 -2 -2 -2 -2 -3 -3 -3 -3 -3 -3 -3 -3 -3 -3 -3 -4 -4 -5 -5 -5 -5 -6 -6 -6 -6 -6 -6 -6 -6 -6 -6 -6 -6 -6 -6 -6 -6 -6 -6 -6 -6 -6 -6 -7 -7 -8 -8 -8
-4 -3 -3 -2 -2 -2 -2 -2 -2 -2 -2 -2 -2 -2 -2 -2 -2 -2 -2 -3 -3 -2 -2 -3 -3 -3 -3 -3 -4 -4 -4 -4 -5 -5 -6 -6 -6 -6 -6 -6 -6 -6 -6 -6 -6 -6 -6 -6 -6 -6 -6 -6 -6 -6 -6 -6 -7 -7 -8 -8 -9 -9 -9
-3 -3 -3 -2 -2 -2 -2 -2 -2 -2 -2 -2 -2 -2 -2 -2 -2 -2 -3 -3 -2 -2 -2 -2 -3 -3 -3 -4 -4 -4 -4 -4 -5 -6 -6 -6 -7 -7 -7 -7 -7 -7 -7 -7 -6 -6 -6 -6 -6 -6 -6 -6 -6 -7 -7 -7 -7 -8 -8 -9 -10 -10 -10
-3 -3 -2 -2 -2 -2 -2 -2 -2 -2 -2 -2 -2 -2 -2 -2 -2 -3 -3 -3 -2 -2 -2 -3 -3 -3 -4 -4 -4 -5 -5 -5 -5 -6 -7 -7 -7 -7 -7 -7 -7 -7 -7 -7 -7 -7 -7 -7 -6 -6 -7 -7 -7 -7 -7 -7 -8 -9 -9 -10 -11 -11 -11
-4 -3 -3 -2 -2 -2 -2 -2 -2 -2 -2 -2 -2 -2 -2 -2 -3 -3 -3 -3 -3 -3 -3 -3 -3 -4 -4 -4 -5 -5 -5 -5 -6 -6 -7 -7 -7 -8 -8 -8 -7 -7 -7 -7 -7 -7 -7 -7 -7 -7 -7 -7 -8 -8 -8 -8 -8 -9 -10 -11 -12 -12 -12
-4 -3 -3 -2 -2 -2 -2 -2 -2 -2 -2 -2 -2 -2 -2 -2 -2 -3 -3 -3 -3 -3 -4 -4 -4 -4 -5 -5 -5 -6 -5 -6 -6 -7 -7 -7 -8 -8 -8 -8 -8 -7 -7 -7 -8 -8 -8 -8 -8 -8 -8 -8 -9 -9 -8 -8 -9 -9 -10 -11 -12 -12 -12
-4 -3 -3 -2 -2 -2 -2 -2 -2 -2 -3 -3 -3 -3 -3 -3 -3 -3 -4 -4 -4 -5 -5 -5 -5 -5 -5 -5 -6 -6 -6 -5 -6 -7 -7 -7 -8 -8 -8 -8 -8 -8 -8 -8 -8 -8 -9 -9 -9 -9 -9 -9 -10 -10 -9 -9 -10 -10 -10 -11 -11 -12 -12
-4 -3 -3 -2 -2 -2 -3 -3 -3 -3 -3 -4 -4 -4 -4 -4 -3 -4 -4 -5 -5 -6 -6 -6 -6 -6 -6 -6 -6 -6 -6 -5 -6 -7 -7 -8 -8 -8 -8 -8 -8 -8 -8 -8 -9 -9 -9 -10 -10 -10 -10 -10 -10 -10 -10 -10 -10 -11 -11 -11 -11 -12 -13
-4 -3 -3 -2 -2 -2 -3 -3 -4 -4 -4 -4 -5 -5 -5 -4 -4 -4 -5 -6 -6 -7 -7 -7 -7 -6 -6 -6 -6 -6 -6 -5 -6 -7 -7 -8 -8 -8 -8 -8 -8 -8 -9 -9 -10 -10 -10 -11 -11 -11 -11 -10 -10 -10 -10 -11 -11 -11 -11 -11 -11 -12 -12
-3 -3 -3 -3 -3 -3 -3 -3 -4 -4 -5 -5 -5 -5 -5 -5 -5 -5 -5 -6 -6 -7 -7 -7 -7 -7 -7 -6 -6 -6 -6 -6 -6 -7 -8 -8 -8 -8 -8 -9 -9 -9 -9 -10 -10 -11 -12 -12 -12 -11 -11 -11 -11 -11 -11 -11 -11 -11 -11 -11 -11 -11 -12
-3 -3 -3 -3 -3 -3 -3 -4 -4 -4 -5 -6 -6 -6 -5 -5 -5 -5 -5 -6 -6 -7 -7 -7 -7 -7 -7 -6 -6 -6 -6 -6 -7 -7 -8 -7 -8 -8 -9 -9 -9 -10 -10 -11 -11 -12 -12 -12 -12 -11 -11 -11 -11 -11 -11 -11 -11 -11 -11 -11 -11 -11 -12
-4 -4 -4 -4 -4 -4 -4 -4 -4 -5 -5 -6 -6 -6 -5 -5 -5 -5 -6 -6 -6 -7 -7 -7 -7 -7 -7 -6 -6 -6 -6 -6 -7 -7 -7 -7 -8 -9 -9 -10 -10 -10 -11 -11 -11 -12 -12 -12 -12 -11 -11 -11 -11 -11 -11 -11 -11 -11 -11 -11 -11 -11 -12
-5 -5 -5 -5 -4 -4 -4 -4 -5 -5 -6 -6 -6 -6 -5 -4 -5 -6 -6 -6 -7 -7 -7 -7 -7 -7 -7 -6 -7 -6 -6 -7 -7 -7 -7 -8 -9 -9 -10 -10 -10 -11 -11 -11 -11 -12 -12 -12 -12 -12 -12 -12 -12 -12 -12 -11 -11 -11 -11 -11 -11 -11 -12
-6 -6 -6 -5 -5 -5 -5 -5 -5 -5 -6 -6 -6 -5 -5 -5 -5 -6 -7 -7 -7 -7 -7 -7 -7 -7 -7 -7 -7 -7 -7 -7 -8 -8 -9 -9 -10 -10 -10 -10 -10 -11 -11 -11 -12 -12 -12 -12 -13 -12 -12 -12 -12 -12 -12 -12 -11 -11 -12 -12 -12 -12 -13
-6 -6 -6 -6 -6 -6 -6 -5 -5 -5 -6 -6 -6 -5 -5 -5 -6 -7 -7 -7 -7 -7 -7 -7 -7 -7 -7 -7 -7 -8 -8 -8 -9 -9 -10 -10 -11 -11 -11 -11 -11 -11 -11 -11 -12 -12 -12 -13 -13 -13 -13 -13 -12 -12 -12 -12 -12 -12 -12 -13 -13 -13 -14
-6 -7 -7 -7 -7 -7 -6 -6 -5 -5 -6 -6 -6 -5 -5 -6 -7 -7 -7 -7 -7 -7 -7 -8 -8 -8 -8 -8 -9 -9 -10 -10 -11 -11 -11 -11 -11 -11 -11 -11 -11 -12 -12 -12 -12 -12 -13 -13 -13 -13 -13 -13 -13 -13 -13 -12 -12 -13 -13 -14 -14 -14 -14
-7 -7 -7 -7 -7 -7 -7 -7 -6 -6 -6 -6 -6 -5 -6 -6 -7 -7 -7 -7 -7 -7 -8 -8 -9 -9 -9 -10 -10 -11 -11 -12 -12 -12 -12 -12 -12 -12 -12 -12 -12 -12 -12 -12 -12 -12 -12 -12 -13 -13 -13 -13 -13 -13 -13 -13 -13 -13 -14 -14 -15 -15 -15
-7 -7 -7 -7 -7 -7 -7 -6 -6 -6 -6 -6 -6 -5 -6 -7 -7 -7 -7 -7 -7 -8 -9 -9 -10 -10 -10 -11 -11 -11 -12 -12 -12 -13 -13 -13 -13 -12 -12 -12 -12 -12 -12 -12 -12 -12 -12 -12 -12 -12 -13 -13 -13 -13 -14 -14 -14 -14 -14 -15 -15 -15 -15
-7 -6 -6 -6 -6 -6 -6 -6 -6 -6 -6 -6 -5 -6 -6 -6 -6 -7 -7 -7 -7 -8 -9 -9 -10 -11 -11 -11 -12 -12 -12 -12 -13 -13 -13 -13 -13 -13 -13 -12 -12 -12 -12 -12 -12 -12 -12 -12 -12 -12 -13 -13 -13 -14 -14 -15 -15 -15 -15 -15 -15 -15 -15
-7 -6 -6 -5 -6 -6 -6 -6 -6 -6 -6 -6 -5 -6 -6 -6 -6 -7 -7 -7 -8 -9 -10 -10 -10 -11 -11 -11 -12 -12 -12 -13 -13 -13 -13 -13 -13 -14 -13 -13 -13 -13 -12 -12 -12 -12 -12 -12 -12 -12 -13 -13 -14 -14 -14 -15 -15 -15 -15 -15 -16 -16 -16
-6 -6 -6 -6 -5 -5 -6 -6 -6 -6 -6 -6 -5 -5 -6 -6 -7 -7 -8 -8 -8 -9 -10 -10 -10 -11 -11 -11 -12 -12 -13 -13 -13 -13 -13 -13 -13 -13 -13 -13 -13 -13 -13 -12 -12 -12 -12 -12 -12 -12 -13 -13 -14 -14 -15 -15 -15 -15 -15 -16 -16 -16 -16
-7 -6 -6 -6 -6 -6 -6 -6 -6 -6 -6 -5 -5 -5 -6 -7 -7 -8 -8 -8 -9 -9 -9 -10 -10 -11 -11 -11 -12 -12 -13 -13 -13 -13 -13 -13 -13 -13 -14 -14 -14 -13 -13 -12 -12 -12 -12 -12 -13 -13 -13 -13 -13 -14 -15 -15 -15 -15 -16 -16 -16 -17 -17
-8 -7 -6 -6 -6 -6 -5 -5 -6 -6 -5 -5 -5 -6 -6 -7 -8 -9 -9 -9 -9 -9 -10 -10 -10 -11 -11 -11 -12 -12 -12 -12 -13 -13 -12 -12 -12 -13 -14 -14 -14 -13 -13 -13 -12 -12 -13 -13 -13 -13 -13 -13 -13 -14 -15 -15 -15 -16 -16 -16 -17 -17 -17
Height
691 691 692 691 691 691 691 691 691 691 691 690 691 692 693 694 694 694 693 694 695 696 697 697 697 698 698 700 702 704 707 708 711 713 715 717 720 722 724 726 728 730 732 734 734 735 737 740 744 747 750 753 755 757 758 759 760 762 763 765 766 768 770
688 688 688 688 688 688 688 688 688 687 687 687 687 688 689 691 692 692 691 692 692 693 694 695 695 695 696 697 699 701 703 706 708 710 712 714 717 719 721 723 725 727 729 731 732 732 734 738 741 743 746 749 751 754 756 756 758 759 761 762 763 765 766
684 684 684 684 685 685 685 685 684 684 684 684 684 684 685 687 689 689 689 689 690 690 691 692 692 692 693 695 696 698 700 702 705 707 709 711 713 716 718 720 722 723 725 727 729 730 731 735 739 741 743 746 749 752 754 755 755 757 758 759 761 762 763
679 680 680 680 680 680 681 681 681 681 681 681 681 681 682 683 685 686 687 687 687 687 688 689 689 689 690 692 693 695 697 699 701 703 706 708 711 713 715 717 719 720 721 722 725 727 729 732 736 739 741 743 746 750 752 754 754 755 756 757 758 759 761
677 676 676 676 676 676 677 677 678 678 678 678 678 678 679 680 681 682 683 683 684 685 685 686 686 686 687 689 690 692 694 695 697 700 702 705 708 710 713 715 716 716 717 718 720 724 727 730 734 737 738 740 743 747 750 753 753 753 754 755 756 757 758
674 674 673 672 672 672 672 673 674 675 675 676 676 676 676 677 678 679 679 680 681 682 683 684 684 684 685 686 687 688 690 692 695 697 699 702 704 707 710 712 712 713 714 715 717 720 724 728 731 734 736 737 739 743 747 750 751 752 752 753 754 755 756
671 671 670 668 668 668 668 669 670 670 671 672 673 673 673 674 674 675 676 677 678 679 681 681 682 682 683 683 684 685 687 689 692 694 696 698 701 704 707 709 710 710 711 713 715 717 720 724 728 731 733 735 737 741 744 747 749 749 749 750 751 752 753
667 666 665 664 664 664 664 664 665 666 667 668 669 670 671 671 671 672 672 673 674 675 677 678 679 680 680 681 682 683 685 687 689 691 693 695 698 700 703 705 707 708 708 710 712 715 717 720 724 727 730 732 735 738 741 744 745 745 745 746 747 748 750
664 662 660 659 660 660 660 660 661 662 663 664 665 665 666 667 668 668 669 669 670 671 673 674 676 677 678 679 680 681 683 684 686 688 689 692 694 697 699 702 704 706 706 707 709 712 714 717 720 723 726 727 729 732 737 740 741 742 742 743 745 746 748
660 658 657 655 655 656 657 657 657 658 659 660 661 662 662 663 663 664 665 666 667 667 669 670 672 673 674 676 677 678 680 681 683 684 686 687 690 692 694 697 700 702 703 704 705 707 709 712 715 717 720 722 724 729 734 737 737 738 739 741 742 744 746
656 654 653 652 652 652 653 653 653 654 655 656 657 658 658 659 659 660 660 661 662 663 664 666 667 668 670 672 673 675 676 678 679 681 682 684 686 687 689 692 694 697 699 701 701 703 704 706 709 712 715 718 722 726 730 732 733 734 736 737 739 742 743
652 650 649 649 648 649 649 649 650 651 651 652 653 654 654 654 655 655 656 656 657 658 660 661 662 663 665 667 668 670 672 674 675 677 679 681 683 684 686 687 689 691 694 696 698 700 701 701 704 708 712 715 718 722 726 728 729 730 732 734 736 738 740
648 647 646 645 645 645 645 645 646 647 648 648 649 649 650 650 650 651 651 652 653 654 655 656 658 659 660 661 663 665 667 669 671 673 675 677 679 682 684 685 687 688 690 692 694 696 697 699 701 705 708 711 715 719 722 724 725 726 728 731 734 736 738
644 643 642 641 641 641 641 642 643 644 644 644 645 645 646 647 647 646 647 647 648 649 650 651 653 653 654 655 657 659 661 664 667 669 672 674 676 678 681 683 685 688 689 690 691 693 695 697 699 702 705 709 712 715 718 719 721 723 725 729 732 734 736
641 639 638 638 638 637 637 638 639 640 640 640 641 642 642 642 642 642 642 642 643 644 645 646 647 648 649 650 652 654 656 658 662 665 668 670 672 675 678 680 682 685 687 689 690 692 693 695 697 700 704 707 710 713 715 717 718 720 724 728 731 733 734
637 637 636 635 635 634 634 634 635 636 636 636 637 637 638 638 637 637 637 637 638 639 640 641 642 643 645 646 647 648 650 653 657 660 663 666 669 672 675 678 680 683 686 688 690 692 693 695 697 700 703 706 708 711 713 715 717 720 723 727 730 732 732
635 635 634 633 632 632 631 631 632 632 632 632 632 632 633 633 633 632 632 632 633 634 635 636 637 639 640 641 642 644 646 649 652 655 659 662 666 669 672 675 679 682 685 687 690 691 693 695 697 700 703 705 707 709 711 713 716 719 722 725 728 729 728
634 632 631 630 629 629 628 628 628 628 628 628 628 628 628 628 627 627 627 627 628 630 630 631 633 634 635 636 638 640 643 645 648 651 655 658 662 666 669 672 676 680 684 687 689 691 693 695 698 700 702 705 706 707 709 711 714 717 720 724 726 727 727
631 629 628 627 626 625 625 624 624 624 624 623 623 623 623 623 622 622 622 622 624 625 626 627 629 630 631 632 635 637 640 642 645 648 651 655 659 662 665 669 673 677 681 684 688 690 692 695 698 700 702 704 705 706 708 711 714 716 719 722 724 725 726
628 626 624 624 623 622 621 620 620 620 620 619 620 619 619 619 618 617 617 618 619 621 622 624 626 627 628 630 633 635 638 640 642 645 649 652 655 659 662 666 670 674 678 682 686 688 690 693 696 698 700 702 703 705 708 710 713 715 717 720 721 723 724
625 623 622 621 620 619 619 618 617 617 617 616 616 616 615 615 614 614 614 615 616 618 620 622 623 625 627 629 632 634 637 639 641 644 648 651 654 657 661 665 669 673 677 680 683 687 690 693 695 697 699 701 702 705 707 709 712 713 715 717 719 720 721
622 621 620 619 618 617 617 616 616 615 614 613 613 612 612 612 611 611 612 613 615 617 618 620 622 624 626 628 630 633 636 638 641 644 648 651 654 657 661 665 669 672 675 678 682 686 690 693 695 696 698 700 702 704 706 708 710 712 714 715 716 717 718
621 620 619 617 616 616 615 615 614 613 612 611 610 610 610 609 609 610 610 612 614 615 617 619 621 623 625 628 630 632 635 638 641 644 647 651 654 657 660 664 668 671 674 678 682 686 690 692 694 695 697 699 701 704 706 707 709 710 712 713 714 715 716
621 620 618 616 615 615 614 613 612 611 611 610 609 609 608 608 608 609 610 611 613 615 616 618 620 622 625 627 630 632 634 637 640 643 647 651 654 657 660 664 667 670 673 678 683 686 690 692 694 695 697 699 701 703 705 706 708 709 710 711 712 714 715
622 620 618 616 614 613 613 612 611 610 610 609 608 607 607 607 608 609 610 611 613 615 616 618 620 623 625 628 630 632 635 637 640 643 648 651 654 657 660 664 667 670 674 678 683 686 689 692 693 694 696 698 701 703 704 706 707 708 709 710 712 713 714
622 620 618 616 614 613 612 611 611 610 609 609 608 607 606 607 608 610 611 613 614 616 618 620 622 624 626 628 631 633 635 637 641 645 649 652 654 657 661 664 667 670 674 678 682 686 689 691 692 694 696 698 700 702 704 705 706 707 709 710 711 712 713
622 620 619 617 615 614 613 612 610 609 609 609 608 607 607 608 610 612 613 614 616 618 620 622 624 625 628 630 632 634 636 639 643 646 650 653 656 659 662 664 667 670 675 679 682 685 688 690 692 694 696 698 700 702 703 705 706 707 708 709 710 710 711
622 620 619 617 616 615 614 612 611 609 609 609 608 607 607 609 611 613 614 615 617 619 621 623 625 627 629 631 633 635 639 641 645 648 651 655 658 661 663 666 669 672 676 679 682 685 687 690 692 694 696 698 700 702 703 704 705 706 707 708 708 708 709
622 620 618 617 616 615 614 613 611 610 609 609 609 608 609 610 612 614 615 617 618 620 622 624 626 628 630 632 634 637 640 643 646 650 653 656 659 662 665 668 671 674 677 679 682 684 686 689 691 693 696 698 700 701 702 703 704 705 706 706 707 708 709
623 620 618 616 615 614 613 612 611 610 609 609 609 609 610 611 613 615 616 618 620 621 623 625 627 630 632 634 637 640 643 646 648 652 655 658 661 663 666 669 672 675 677 679 681 683 685 688 690 693 695 697 698 700 701 703 704 705 705 706 707 708 709
622 619 617 614 613 612 612 611 610 610 609 609 610 610 611 613 615 616 618 619 621 623 625 627 630 633 635 637 639 642 645 648 650 653 656 660 663 666 668 670 673 675 677 679 681 683 685 688 690 692 694 696 697 699 701 702 704 705 705 706 707 707 707
622 619 616 614 612 611 611 610 610 610 609 610 610 611 612 614 616 618 620 621 622 625 628 630 632 635 637 639 642 645 647 649 652 655 658 661 664 667 669 671 672 674 676 678 680 683 686 688 690 692 694 695 697 699 701 702 703 704 705 705 705 705 706
622 619 617 615 613 612 611 611 610 610 610 610 611 612 613 615 617 619 621 622 624 626 629 632 634 637 639 642 644 647 649 651 654 656 659 662 665 667 669 671 673 675 677 679 681 683 686 688 690 692 693 695 697 699 700 701 702 702 703 703 703 704 704
622 620 619 617 615 613 612 611 611 611 611 611 612 613 615 617 619 621 623 624 625 627 630 633 636 638 641 643 646 648 651 653 656 658 661 663 665 667 670 672 674 676 678 680 682 684 686 688 690 691 693 695 697 698 698 699 700 700 701 702 703 703 704
624 622 620 619 617 615 614 612 612 612 612 612 613 615 617 619 621 624 626 627 628 630 631 634 636 639 642 644 647 650 652 654 657 659 661 663 666 668 671 673 675 677 679 681 683 685 686 688 690 691 693 694 695 696 696 697 699 700 701 702 702 703 703
626 624 622 620 618 617 615 614 614 614 614 614 615 617 618 621 623 625 627 629 631 633 634 636 638 640 643 645 648 650 653 655 657 660 662 664 666 669 671 673 675 677 679 681 683 685 686 688 689 691 692 692 693 695 696 697 699 700 700 701 701 702 702
Wind_Speed
24 24 25 25 25 24 24 25 25 25 26 26 26 26 25 25 24 25 27 27 28 29 30 30 30 30 31 29 27 27 27 25 26 28 29 30 30 30 30 27 21 10 4 10 22 28 28 29 31 31 31 30 28 28 28 27 26 26 25 24 23 22 22
24 24 23 23 24 24 25 26 26 26 25 26 27 26 24 24 24 25 27 26 26 27 28 29 30 31 31 30 29 29 29 27 27 27 28 29 29 30 31 30 25 16 7 8 15 23 26 29 32 31 30 30 29 28 29 27 26 26 25 24 23 22 21
24 23 22 23 24 25 27 26 25 25 25 25 26 25 24 23 23 24 26 26 26 27 27 26 27 28 29 28 29 30 30 29 29 29 29 30 30 30 31 32 30 22 13 11 14 22 27 29 30 30 30 31 29 27 28 27 26 26 24 23 22 21 20
25 25 24 25 25 25 26 26 24 22 22 22 24 25 24 22 22 24 26 26 26 27 27 27 27 27 27 26 27 28 28 28 29 30 30 31 31 32 32 32 32 28 21 17 15 20 27 30 29 28 29 30 28 25 26 25 24 23 22 21 20 19 19
23 25 25 26 26 25 25 26 25 24 24 22 21 22 23 22 22 25 26 27 27 26 26 27 27 28 27 26 26 27 27 28 28 29 30 30 31 32 31 30 31 29 25 22 19 19 24 27 28 26 26 29 28 24 23 23 23 22 21 20 20 19 20
27 27 28 28 27 26 25 26 25 25 26 26 25 23 23 23 24 25 26 26 25 25 25 25 26 26 26 27 28 28 28 28 29 29 29 30 31 30 29 28 29 29 26 24 22 22 24 26 27 25 24 26 27 26 24 23 22 22 22 22 22 22 22
30 32 32 31 28 26 26 25 25 25 25 26 26 25 23 23 24 24 24 24 23 23 23 24 25 24 24 26 29 30 30 29 29 30 30 31 31 30 29 28 28 28 27 24 21 21 24 27 26 25 25 25 25 24 23 22 20 20 22 23 23 23 22
30 32 32 31 29 28 27 25 25 25 25 25 26 26 26 25 24 23 23 23 23 22 23 24 24 25 25 26 29 30 30 30 30 30 30 31 31 30 29 28 27 26 26 24 21 19 21 25 25 24 24 24 24 22 20 22 21 20 21 22 22 21 20
30 31 30 29 28 28 27 25 25 25 25 25 26 28 29 29 28 26 24 24 24 24 24 24 24 25 26 27 29 30 31 30 30 31 31 31 31 31 30 28 26 25 24 23 20 18 19 20 21 23 23 22 24 24 22 23 23 19 17 19 19 18 17
30 30 28 27 26 26 26 25 25 25 25 27 27 27 28 28 29 28 26 25 24 24 25 25 26 27 27 27 29 31 31 32 31 32 34 34 34 34 32 29 26 25 25 23 20 20 20 17 16 22 25 23 24 25 23 22 22 19 18 17 15 14 15
30 28 25 23 24 25 25 25 25 24 25 28 28 27 27 27 27 27 27 27 27 26 26 27 28 28 27 27 28 30 31 32 33 34 35 35 36 38 37 34 30 27 26 24 21 21 22 18 16 22 26 24 23 24 23 21 21 20 19 17 12 8 10
29 28 25 23 23 24 24 25 25 24 27 28 28 27 28 29 28 27 27 28 29 29 28 27 27 27 27 27 28 29 30 31 32 35 36 36 37 39 40 40 37 33 30 27 23 21 22 22 20 21 25 26 24 23 22 21 20 20 19 17 13 9 8
29 27 25 24 24 24 24 25 25 25 27 28 28 27 27 27 27 27 28 29 29 29 28 27 27 27 28 30 30 29 30 31 32 33 36 38 37 38 40 40 39 37 36 34 29 25 23 24 23 23 25 27 26 24 22 21 20 20 19 16 13 11 11
26 25 25 24 23 23 23 23 23 23 24 25 26 25 25 26 27 28 29 29 29 28 28 28 28 28 29 30 30 30 30 31 31 31 33 35 35 36 37 38 37 35 35 34 32 29 27 26 26 26 25 27 27 25 24 24 22 20 17 14 11 11 13
25 23 23 21 19 20 21 22 22 22 23 24 24 23 24 26 28 29 29 28 28 29 29 29 30 30 29 30 31 32 32 32 32 31 31 32 33 33 34 35 35 34 33 31 30 29 28 27 27 27 26 26 26 25 24 24 23 20 16 13 11 12 15
21 19 19 18 18 20 22 24 24 23 23 23 24 24 25 26 27 27 27 28 28 29 29 29 29 30 30 30 31 32 33 34 34 32 31 31 31 31 31 31 32 32 30 30 29 27 26 25 25 26 26 26 26 25 23 22 19 16 14 11 8 11 16
21 20 19 20 21 22 23 24 25 24 23 23 24 26 26 26 26 27 27 27 27 27 26 27 28 29 29 30 31 32 31 33 34 33 32 30 29 28 28 28 28 27 25 25 26 25 25 25 24 25 25 25 26 25 24 22 18 14 13 10 6 7 12
23 23 22 21 22 22 23 24 25 24 24 26 27 27 27 26 26 26 26 25 24 24 24 24 25 26 28 29 31 31 30 31 34 34 32 30 29 28 26 26 27 26 23 22 22 20 21 22 21 21 23 22 22 23 23 21 18 15 14 12 9 8 9
22 22 21 20 20 21 22 24 24 24 24 25 26 25 25 25 24 23 23 23 22 21 21 22 22 24 27 29 30 29 29 30 33 34 32 31 29 27 26 27 29 29 26 25 24 22 22 22 21 20 21 20 19 20 20 17 16 15 15 14 14 13 7
22 21 21 21 21 22 22 22 21 20 20 20 21 21 21 20 19 19 19 19 20 18 17 18 20 21 24 27 27 26 28 31 33 34 33 31 29 27 26 28 31 30 28 26 25 24 24 24 23 23 24 22 19 18 16 14 14 15 15 15 16 15 11
23 22 22 23 23 21 19 18 18 17 17 17 18 18 18 18 18 17 18 18 17 17 17 17 19 20 21 23 24 24 27 30 31 32 32 31 30 28 28 30 31 29 27 27 26 26 26 26 25 26 25 23 19 16 15 15 15 15 15 15 16 16 16
23 20 19 20 19 17 16 16 16 17 17 17 17 16 16 17 17 17 18 17 16 16 17 18 19 21 21 21 22 23 25 28 29 29 29 29 28 26 28 30 30 28 27 28 28 28 26 25 26 25 23 21 18 16 15 16 15 15 15 15 16 16 17
16 14 14 15 15 14 15 16 16 16 16 16 15 14 14 15 14 15 18 18 18 18 18 18 19 21 21 20 21 22 23 25 28 28 28 27 24 24 28 30 28 28 28 29 28 26 23 23 23 22 20 18 17 15 15 14 13 12 12 12 12 13 14
13 12 13 14 14 14 14 13 14 15 14 13 12 12 13 11 11 15 17 18 18 19 19 20 20 21 21 19 20 20 21 24 28 28 27 25 24 27 31 31 28 29 29 27 25 22 20 20 20 19 18 16 15 13 12 10 10 9 8 8 8 8 10
15 15 14 13 13 14 12 11 12 14 13 11 10 11 10 8 12 15 16 17 18 19 19 20 19 19 19 18 19 19 19 22 27 27 23 24 27 30 32 31 28 28 27 24 21 20 19 19 18 16 15 14 13 11 10 9 8 8 7 6 6 6 6
15 15 14 13 12 12 11 10 12 13 12 9 9 9 7 9 13 13 13 15 15 15 16 16 16 17 18 18 17 17 18 23 27 26 23 26 30 31 31 30 28 27 25 22 20 19 19 18 17 15 15 13 11 10 10 9 9 8 7 6 5 3 2
15 13 12 11 11 11 12 12 12 12 10 7 7 6 5 12 14 12 12 13 14 14 15 15 16 18 18 17 16 17 21 26 27 26 26 28 29 29 29 28 27 26 24 22 21 21 20 19 17 16 15 13 12 12 11 10 9 8 7 6 4 3 4
14 13 11 11 10 9 11 12 11 9 8 6 5 1 10 17 16 14 16 17 17 17 16 16 18 18 17 19 21 23 25 26 27 27 28 28 27 26 26 25 24 24 23 23 23 22 21 20 18 17 16 15 14 13 12 10 10 8 7 6 5 4 4
17 14 14 14 11 7 8 10 8 6 5 4 3 5 15 18 16 16 17 18 19 20 19 18 20 20 20 22 24 25 24 25 27 27 27 27 27 26 25 24 24 24 23 24 24 24 22 21 20 18 18 17 16 14 12 11 10 9 8 7 6 4 3
16 15 15 16 13 9 8 10 9 5 3 3 3 8 15 16 15 17 19 19 21 21 21 21 20 19 20 21 22 21 21 23 25 25 25 25 26 26 25 24 24 24 24 24 24 23 23 23 22 21 20 18 16 14 13 11 10 9 9 7 5 3 2
15 15 15 13 12 10 8 8 7 4 3 4 5 12 16 16 16 18 19 21 23 21 19 19 18 17 18 20 20 20 21 23 24 24 24 24 23 23 24 24 23 23 23 23 23 23 23 23 23 22 20 19 17 16 14 11 10 8 7 6 4 2 2
17 17 15 9 7 8 6 4 3 1 4 5 8 15 18 18 19 20 20 22 23 20 17 17 17 16 17 19 20 20 21 22 23 24 25 24 22 21 21 22 22 22 22 23 24 24 23 23 22 22 20 19 18 16 14 12 10 8 7 6 4 1 2
20 19 18 15 12 10 7 4 2 1 4 6 10 17 20 20 21 21 21 23 23 20 16 16 17 17 17 19 20 20 20 21 22 23 24 23 22 20 19 19 20 21 22 23 24 24 24 23 22 21 20 19 18 16 14 13 10 8 7 5 3 1 2
22 21 19 16 15 12 9 6 3 3 5 7 13 19 21 22 22 20 19 21 23 21 18 17 17 17 18 19 20 20 21 21 21 23 23 22 21 20 19 19 21 22 23 23 23 23 23 22 22 21 21 20 18 15 13 12 9 7 6 5 3 0 2
21 21 19 18 17 14 10 8 5 5 6 9 15 21 23 21 19 17 15 16 18 18 19 18 19 19 19 20 21 21 22 22 22 22 23 22 21 20 21 22 22 23 23 23 23 23 23 22 21 20 19 18 16 14 12 11 9 7 5 4 3 0 3
20 20 20 21 20 16 12 9 6 5 5 9 17 22 23 20 16 14 14 14 14 15 17 18 19 20 20 21 22 22 22 23 23 23 23 22 22 22 24 24 24 23 23 23 22 22 22 21 20 18 16 15 14 13 12 11 9 7 5 3 2 1 3
Wind_Direction
264 264 265 268 271 272 270 265 259 252 245 239 237 240 244 245 241 234 233 233 232 231 230 228 228 228 228 226 224 226 227 226 222 219 217 216 215 216 217 213 208 201 158 183 194 190 189 196 196 196 199 201 202 203 206 211 216 219 220 220 220 221 225
262 261 262 263 266 270 272 269 261 253 245 237 233 233 236 241 241 236 233 231 229 228 226 225 225 227 227 225 223 223 225 225 222 218 216 216 216 217 219 217 212 200 164 155 175 177 180 187 191 192 194 196 198 200 203 209 212 215 218 220 223 228 232
261 262 262 260 261 263 267 268 264 256 246 236 232 231 231 234 238 239 237 233 232 229 226 225 224 223 223 220 218 220 221 221 220 218 217 217 218 218 219 217 212 200 177 159 165 170 172 179 187 191 192 195 199 200 202 207 211 214 218 222 227 232 235
261 261 258 255 254 255 258 261 263 264 258 246 236 230 229 231 235 240 241 239 237 233 229 227 226 224 221 216 213 215 216 216 215 215 215 217 218 218 218 215 210 204 186 166 163 171 175 179 185 190 192 193 195 199 204 209 214 217 220 223 227 232 236
270 266 260 252 250 252 255 257 259 261 264 262 253 239 232 234 238 241 242 241 240 238 234 231 228 227 222 216 215 215 215 214 213 212 213 215 215 215 216 211 207 204 191 175 167 168 174 180 184 187 191 192 192 196 203 210 215 216 217 220 223 228 235
279 275 267 256 250 249 250 252 252 252 254 257 259 253 243 238 240 242 241 238 239 239 239 236 234 231 224 218 217 217 216 215 213 211 211 212 213 213 211 208 203 200 193 184 175 168 171 178 182 183 186 191 194 195 199 205 211 215 216 218 222 228 234
279 275 267 256 249 246 245 247 248 247 246 248 252 254 252 245 239 239 239 236 236 237 239 241 240 237 229 222 219 219 218 216 213 212 212 212 211 209 206 204 200 197 193 187 178 171 172 177 181 185 187 191 195 198 201 202 202 210 218 221 225 228 231
279 275 264 252 246 243 240 241 243 245 246 247 249 251 254 254 250 246 241 236 236 238 240 242 242 240 236 230 226 224 221 218 215 212 212 212 210 205 202 200 198 194 192 188 182 176 172 172 177 183 185 186 188 192 201 202 201 207 214 218 223 226 227
283 278 264 249 244 242 239 239 239 242 244 246 248 247 246 247 247 247 244 239 235 234 236 239 240 242 241 237 234 231 228 226 221 215 212 210 206 201 198 197 195 193 190 187 186 182 173 168 173 178 177 178 184 191 199 203 205 209 209 210 215 219 221
286 280 264 248 243 242 241 241 241 241 244 245 245 243 240 238 237 237 238 238 235 232 234 238 241 242 241 241 239 236 233 231 228 222 217 212 206 201 197 193 192 193 192 189 188 187 181 174 178 182 180 180 188 196 200 200 202 206 206 205 208 213 217
287 282 268 253 249 247 243 242 243 246 248 247 243 241 239 238 234 232 234 235 235 235 237 239 239 237 236 238 239 237 235 232 229 226 220 215 210 205 201 196 193 192 193 192 192 190 187 185 183 183 184 184 188 193 196 197 197 198 198 197 197 202 215
287 284 275 263 256 252 247 245 247 249 249 247 244 242 241 238 234 232 232 232 232 234 236 236 235 232 232 235 236 235 233 229 228 227 222 217 213 209 207 203 199 195 193 193 193 192 192 191 184 180 183 186 187 190 194 197 197 195 193 195 197 200 209
284 280 275 266 258 254 251 248 247 246 246 247 246 246 245 242 239 235 234 234 233 233 233 232 230 229 230 232 232 230 228 225 224 223 220 216 213 209 208 207 205 202 198 196 194 193 196 195 187 182 184 188 190 190 189 190 192 192 192 197 202 209 222
279 275 271 265 260 257 255 251 248 248 249 251 251 249 247 246 245 242 239 237 235 234 233 230 227 225 225 226 225 224 222 219 217 215 212 210 208 206 206 206 205 205 203 201 199 198 198 197 193 191 190 192 195 194 189 186 186 186 188 193 202 218 236
275 271 269 265 259 258 257 257 256 255 254 254 253 250 248 246 245 244 243 242 241 240 239 233 228 226 224 223 222 220 217 214 211 207 203 202 202 202 203 203 204 205 204 204 203 202 201 197 195 195 192 191 193 193 191 188 185 186 186 192 211 232 245
282 276 271 267 261 258 259 262 262 259 255 253 252 252 250 248 248 247 246 246 245 244 244 237 230 227 224 223 220 217 213 211 206 201 197 196 197 198 199 201 203 204 205 205 204 204 202 196 194 194 191 190 189 188 187 184 180 184 187 194 222 245 256
295 291 281 275 270 265 262 263 264 262 258 255 255 256 253 251 251 249 248 247 245 242 240 236 230 227 224 221 219 213 207 204 201 196 192 191 191 191 193 196 198 198 199 201 200 200 198 194 191 190 189 189 189 190 190 183 176 184 193 196 219 250 261
291 289 283 276 273 270 266 264 267 266 263 261 261 260 257 253 251 248 247 245 240 237 236 233 229 225 221 219 217 210 201 196 194 192 189 187 185 184 186 189 190 189 190 191 188 186 186 186 183 183 186 188 191 194 195 192 191 197 198 197 210 230 257
287 286 282 278 276 275 272 270 272 272 269 268 269 269 266 261 254 246 240 234 229 231 233 230 225 221 218 217 213 205 199 194 191 189 187 184 181 179 182 183 183 183 183 183 179 172 171 173 174 176 178 178 181 188 195 200 205 207 204 204 213 220 236
284 283 282 283 283 282 279 278 280 282 282 281 281 281 279 272 259 242 227 221 219 217 215 215 216 212 211 212 207 200 199 196 190 187 186 184 180 179 180 179 179 179 178 177 176 171 169 170 172 173 171 167 170 182 195 203 209 213 216 216 216 218 222
286 285 284 287 288 286 285 290 294 294 290 286 286 284 278 272 263 242 220 210 205 200 195 197 202 200 199 201 199 197 201 198 189 185 185 183 183 181 178 174 174 175 172 169 167 166 166 167 168 169 171 174 180 191 200 207 213 221 226 228 228 227 228
283 283 283 289 291 290 298 306 306 298 293 291 291 286 276 271 263 240 216 198 185 186 190 191 192 193 192 192 192 195 202 197 185 180 182 183 181 177 173 171 170 167 164 161 159 159 161 163 165 167 172 180 187 196 207 216 224 230 233 237 240 238 236
290 290 294 302 303 302 309 313 307 299 298 299 295 285 276 272 255 226 208 195 183 183 186 185 189 190 187 187 190 193 200 194 180 174 181 182 176 168 165 165 163 159 156 156 156 157 160 162 166 169 174 182 193 205 216 224 227 230 231 232 237 241 243
327 325 316 312 311 308 309 310 305 301 303 302 294 283 279 269 229 204 200 194 186 185 184 184 187 187 183 185 187 189 194 189 174 170 177 177 167 161 160 159 157 155 154 154 156 159 161 165 171 176 181 192 204 211 213 212 209 211 213 215 222 231 238
332 328 320 313 310 308 309 310 306 306 309 305 293 286 279 242 196 189 193 189 185 185 185 183 182 179 178 180 180 183 189 179 165 163 169 166 158 155 156 156 155 153 153 155 158 161 161 164 172 181 188 197 201 196 189 184 182 185 187 193 203 211 222
327 327 321 314 313 315 319 319 309 308 313 309 299 294 265 197 175 175 180 178 176 175 171 168 168 169 170 171 173 176 171 158 151 152 154 153 152 152 155 156 155 154 156 158 160 162 163 165 171 177 182 185 182 171 165 163 165 168 169 173 174 162 143
323 323 319 313 319 328 330 320 305 300 308 311 310 301 204 165 155 149 150 149 147 147 150 153 157 161 162 159 155 154 148 142 141 140 139 141 146 150 153 156 157 159 162 162 161 163 163 166 170 171 171 171 165 157 153 153 155 155 149 144 135 103 76
318 316 317 316 322 334 330 318 301 290 293 302 308 229 149 145 141 141 143 141 140 141 144 145 144 144 144 137 130 129 130 131 131 131 132 136 141 144 146 151 154 157 160 162 163 162 162 162 164 164 163 161 156 151 145 142 140 136 131 126 109 82 52
325 322 322 319 318 321 318 313 310 299 283 279 272 160 147 145 145 145 141 140 141 139 133 128 126 126 127 125 122 122 122 122 123 125 128 132 136 139 143 148 152 153 156 161 163 161 159 158 157 156 155 153 148 141 135 134 131 124 120 118 104 76 40
334 327 320 313 310 310 296 290 299 302 254 244 224 163 153 151 150 143 136 137 140 135 126 120 117 118 122 123 122 121 120 120 122 122 123 128 135 141 145 149 153 154 157 161 163 160 157 156 153 152 152 149 143 136 131 129 127 120 116 114 107 88 40
338 330 323 308 301 308 302 287 291 284 215 217 187 154 147 146 144 138 138 143 141 130 120 119 117 116 120 123 122 124 126 128 129 127 127 130 135 141 148 152 154 156 158 159 159 156 155 155 154 152 150 148 144 140 135 130 126 122 121 119 116 104 357
346 349 357 358 336 331 333 316 305 246 188 198 171 148 142 142 142 138 139 145 141 128 121 124 122 119 124 126 127 131 134 135 134 134 135 137 137 141 151 156 157 159 159 157 155 154 154 155 155 152 150 149 147 144 142 142 138 132 127 121 114 99 340
4 9 16 24 19 8 9 8 1 142 171 177 159 145 141 142 143 141 143 147 141 129 126 128 124 124 131 133 133 136 137 137 138 139 141 144 145 147 153 156 157 159 159 156 156 156 155 155 155 152 150 150 148 146 147 147 143 135 127 123 117 79 339
8 16 19 17 16 19 22 17 23 126 158 161 151 145 143 141 137 135 142 149 145 137 135 134 129 130 135 136 137 139 138 138 140 142 144 147 150 152 155 156 156 157 157 157 158 158 156 155 155 154 152 152 149 146 143 140 137 134 130 131 133 54 338
353 7 16 16 16 22 27 28 53 115 139 149 148 144 138 132 124 122 131 141 143 142 142 139 136 136 139 139 141 142 143 143 145 147 150 153 156 156 156 156 157 159 159 160 160 159 157 157 157 157 156 153 148 143 142 144 147 148 141 136 146 275 327
345 360 15 21 20 23 32 43 62 101 132 146 145 140 134 127 121 121 126 129 133 138 140 138 139 140 142 143 144 146 148 149 151 155 160 163 164 163 160 159 160 161 162 162 161 160 160 160 159 158 156 151 147 147 149 151 152 154 150 145 164 252 303